"TOA5","AWS1","CR1000","7964","CR1000.Std.14","CPU:AWS1_114.CR1","64363","TBL110"
"TIMESTAMP","RECORD","Wind_spd_WVc(1)","Wind_spd_WVc(2)","Air_Temp_Avg","Humidity_Avg","SW_upper_Wm2_Avg","Rain_Tot","Press_Avg","Issui_Tot","Depth_cm","SR50A_Raw","Quality","Ground_Temp_Avg(1)","Ground_Temp_Avg(2)","SW_lower_Wm2_Avg","Albedo_Avg","SWC_per(1)","SWC_per(2)","Period(1)","Period(2)"
"TS","RN","","","","","","","","","","","","","","","","","","",""
"","","WVc","WVc","Avg","Avg","Avg","Tot","Avg","Tot","Smp","Smp","Smp","Avg","Avg","Avg","Avg","Smp","Smp","Smp","Smp"
"2016-09-22 00:00:00",254221,0,0,15,100,0,0,871.6906,0,-0.886,3.105,279,17.44,17.61,0.1023177,0,50.99,58.26,33.54,35.28
"2016-09-22 00:10:00",254222,0,0,14.99,100,0,0,871.5726,0,-2.371,3.119,233,17.44,17.61,0.08715952,0,51.05,58.26,33.56,35.28
"2016-09-22 00:20:00",254223,0,0,14.89,100,0,0,871.5558,0,-1.659,3.113,260,17.42,17.61,0.09852815,0,50.99,58.26,33.54,35.28
"2016-09-22 00:30:00",254224,0,0,14.93,100,0,0,871.6127,0,-1.707,3.113,266,17.4,17.6,0.1894772,0,50.99,58.26,33.54,35.28
"2016-09-22 00:40:00",254225,0,0,14.94,100,0,0,871.6591,0,-0.885,3.105,311,17.39,17.59,0.16674,0,50.99,58.26,33.54,35.28
"2016-09-22 00:50:00",254226,0,0,14.88,100,0,0,871.6212,0,0.474,3.092,343,17.37,17.59,0.08715952,0,50.99,58.26,33.54,35.28
"2016-09-22 01:00:00",254227,0,0,14.84,100,0,0,871.4548,0,-1.713,3.114,289,17.36,17.58,0.007579089,0,50.99,58.26,33.54,35.28
"2016-09-22 01:10:00",254228,0.18,131.7,14.77,100,0,0,871.3621,0,-0.529,3.102,337,17.36,17.6,0.1591609,0,50.99,58.21,33.54,35.26
"2016-09-22 01:20:00",254229,0,0,14.82,100,0,0,871.1999,0,-2.487,3.122,242,17.36,17.6,0.2235831,0,50.94,58.21,33.53,35.26
"2016-09-22 01:30:00",254230,0,0,14.7,100,0,0,871.1683,0,-2.999,3.127,236,17.36,17.6,0.3637963,0,50.94,58.21,33.53,35.26
"2016-09-22 01:40:00",254231,0.158,331.1,14.66,100,0,0,871.1494,0,-2.691,3.124,246,17.36,17.6,0.3334799,0,50.94,58.21,33.53,35.26
"2016-09-22 01:50:00",254232,0,0,14.68,100,0,0,870.9661,0,-2.123,3.118,257,17.36,17.61,0.2917949,0,50.94,58.21,33.53,35.26
"2016-09-22 02:00:00",254233,0.032,322.2,14.67,100,0,0,870.9913,0,-2.233,3.12,249,17.37,17.61,0.2349517,0,50.94,58.21,33.53,35.26
"2016-09-22 02:10:00",254234,0,0,14.69,100,0,0,871.0546,0,-3.103,3.128,225,17.37,17.65,0.2463204,0,50.94,58.21,33.53,35.26
"2016-09-22 02:20:00",254235,0,0,14.75,100,0,0,871.1978,0,-0.023,3.098,228,17.39,17.64,0.257689,0,50.94,58.15,33.53,35.25
"2016-09-22 02:30:00",254236,0,0,14.74,100,0,0,871.1767,0,-0.276,3.1,219,17.41,17.64,0.1970563,0,50.88,58.15,33.52,35.25
"2016-09-22 02:40:00",254237,0,0,14.72,100,0,0,871.0525,0,-0.252,3.1,213,17.43,17.66,0.09094907,0,50.88,58.15,33.52,35.25
"2016-09-22 02:50:00",254238,0.049,177,14.71,100,0,0,871.1788,0,-0.126,3.099,237,17.42,17.66,0.1174759,0,50.88,58.15,33.52,35.25
"2016-09-22 03:00:00",254239,0.021,210,14.71,100,0,0,871.1978,0,-0.331,3.101,209,17.39,17.65,0.06063271,0,50.88,58.15,33.52,35.25
"2016-09-22 03:10:00",254240,0,0,14.72,100,0,0,871.0566,0,-0.947,3.107,212,17.37,17.65,0.2273727,0,50.88,58.15,33.52,35.25
"2016-09-22 03:20:00",254241,0.265,111.7,14.72,100,0,0,870.9451,0,-0.994,3.107,212,17.38,17.66,0.2273727,0,50.88,58.15,33.52,35.25
"2016-09-22 03:30:00",254242,0.675,107,14.72,100,0,0.5,870.9451,0,-1.049,3.108,199,17.36,17.66,0.3334799,0,50.88,58.15,33.52,35.25
"2016-09-22 03:40:00",254243,0.118,110.3,14.72,100,0,0,870.9451,0,-1.145,3.108,207,17.34,17.66,0.208425,0,50.88,58.15,33.52,35.25
"2016-09-22 03:50:00",254244,0,0,14.83,100,0,0,870.9451,0,-0.813,3.105,210,17.33,17.67,0.2273727,0,50.88,58.15,33.52,35.25
"2016-09-22 04:00:00",254245,0,0,14.79,100,0,0.5,870.9555,0,-0.947,3.107,201,17.3,17.66,0.2273727,0,50.83,58.09,33.5,35.24
"2016-09-22 04:10:00",254246,0,0,14.71,100,0,0,870.8482,0,-0.844,3.106,208,17.28,17.66,0.2235831,0,50.88,58.09,33.52,35.24
"2016-09-22 04:20:00",254247,0,0,14.78,100,0,0,870.7429,0,-0.735,3.104,206,17.28,17.66,0.3107426,0,50.88,58.15,33.52,35.25
"2016-09-22 04:30:00",254248,0,0,14.9,100,0,0,870.884,0,-0.995,3.107,201,17.28,17.66,0.3107426,0,50.88,58.09,33.52,35.24
"2016-09-22 04:40:00",254249,0.029,0.417,14.74,100,0,0.5,871.0208,0,0.388,3.094,227,17.28,17.66,0.04926408,0,50.94,58.09,33.53,35.24
"2016-09-22 04:50:00",254250,0,0,14.73,100,0,1.5,871.162,0,-2.993,3.126,181,17.28,17.66,0.1136863,0,50.94,58.09,33.53,35.24
"2016-09-22 05:00:00",254251,0.196,12.73,14.72,100,0,0.5,871.1725,0,-0.125,3.099,235,17.28,17.66,0.1098968,0,51.16,58.09,33.58,35.24
"2016-09-22 05:10:00",254252,0.024,354.3,14.67,100,0,0,871.1472,0,1.825,3.08,345,17.27,17.66,0.03789544,0,51.33,58.15,33.62,35.25
"2016-09-22 05:20:00",254253,0.186,39.99,14.7,100,0,0,871.1978,0,0.799,3.09,298,17.22,17.66,0.09473861,0,51.49,58.21,33.66,35.26
"2016-09-22 05:30:00",254254,0.131,348.2,14.7,100,0.07860574,0,871.2589,0,0.696,3.091,296,17.23,17.66,0.174319,0.153,51.55,58.32,33.68,35.29
"2016-09-22 05:40:00",254255,0.56,100.4,14.66,100,1.124062,0,871.1978,0,0.388,3.094,275,17.26,17.67,0.2804263,0.262,51.55,58.32,33.68,35.29
"2016-09-22 05:50:00",254256,0.045,69.4,14.81,100,3.340744,0,871.3221,0,0.474,3.092,268,17.28,17.66,0.6328539,0.2,51.55,58.38,33.68,35.31
"2016-09-22 06:00:00",254257,0.052,145.6,14.94,100,7.381079,0,871.3557,0,0.292,3.094,262,17.28,17.66,1.398342,0.189,51.55,58.44,33.68,35.32
"2016-09-22 06:10:00",254258,0.286,90.9,14.96,100,17.87101,0,871.4063,0,-0.42,3.1,250,17.27,17.66,2.861106,0.16,51.49,58.5,33.66,35.33
"2016-09-22 06:20:00",254259,0.23,54.59,15.24,100,40.71384,0,871.242,0,-0.667,3.101,214,17.27,17.66,5.949585,0.147,51.49,58.5,33.66,35.33
"2016-09-22 06:30:00",254260,0.128,4.417,15.38,100,57.72805,0,871.1978,0,-0.66,3.1,222,17.27,17.65,10.30756,0.175,51.44,58.5,33.65,35.33
"2016-09-22 06:40:00",254261,0.149,18.18,15.74,100,66.33145,0,871.1978,0,-1.263,3.104,232,17.26,17.63,10.17493,0.15,51.44,58.56,33.65,35.35
"2016-09-22 06:50:00",254262,0.038,2.746,15.75,100,48.55476,0,871.1978,0,-0.55,3.098,238,17.24,17.62,6.24138,0.128,51.44,58.56,33.65,35.35
"2016-09-22 07:00:00",254263,0.049,219.1,15.74,100,84.85489,0,871.1219,0,-0.955,3.101,225,17.2,17.62,10.23556,0.121,51.44,58.56,33.65,35.35
"2016-09-22 07:10:00",254264,0.01,271.8,15.96,100,95.4313,0,870.9955,0,0.034,3.09,206,17.19,17.62,11.82338,0.121,51.38,58.56,33.64,35.35
"2016-09-22 07:20:00",254265,0.065,339.4,16.2,100,130.2576,0,870.9451,0,0.999,3.079,339,17.19,17.62,15.89335,0.12,51.38,58.56,33.64,35.35
"2016-09-22 07:30:00",254266,0.113,296.4,16.11,99.9,31.30474,0,870.9451,0,-0.512,3.096,253,17.19,17.62,2.629944,0.067,51.33,58.56,33.62,35.35
"2016-09-22 07:40:00",254267,0.139,333.3,15.75,100,14.77788,0,870.9451,0,0.945,3.083,318,17.19,17.62,1.110337,0.07,51.38,58.56,33.64,35.35
"2016-09-22 07:50:00",254268,0.141,11.3,15.61,100,27.28405,0,870.9471,0,-2.092,3.113,195,17.19,17.62,3.126374,0.113,51.33,58.56,33.62,35.35
"2016-09-22 08:00:00",254269,0,0,15.66,100,50.16618,0,870.9451,0,1.048,3.082,233,17.19,17.62,5.82453,0.116,51.33,58.56,33.62,35.35
"2016-09-22 08:10:00",254270,0,0,15.71,100,54.12791,0.5,870.9451,0,-1.784,3.11,193,17.2,17.62,5.998849,0.111,51.27,58.56,33.61,35.35
"2016-09-22 08:20:00",254271,0.04,328.9,15.75,100,68.55992,0,870.9661,0,0.715,3.085,229,17.23,17.62,7.245609,0.105,51.27,58.56,33.61,35.35
"2016-09-22 08:30:00",254272,0,0,15.97,100,69.51498,1.5,871.0714,0,-1.153,3.102,211,17.25,17.62,6.912129,0.098,51.33,58.56,33.62,35.35
"2016-09-22 08:40:00",254273,0.019,320.6,15.83,100,46.03152,2.5,871.2547,0,0.02,3.092,200,17.25,17.62,4.388292,0.095,51.55,58.56,33.68,35.35
"2016-09-22 08:50:00",254274,0.082,2.557,15.63,100,60.01155,2,871.2379,0,0.162,3.092,220,17.24,17.62,5.960954,0.099,52.66,58.67,33.95,35.37
"2016-09-22 09:00:00",254275,0.071,336.1,15.39,100,74.29814,2,871.2147,0,0.622,3.088,247,17.24,17.63,7.355506,0.098,53.28,59.08,34.1,35.47
"2016-09-22 09:10:00",254276,0,0,15.27,100,59.91329,1,871.2757,0,-0.714,3.101,236,17.25,17.61,5.813161,0.096,53.56,60.15,34.17,35.71
"2016-09-22 09:20:00",254277,0.059,3.808,15.35,100,99.7271,1,871.2441,0,-0.304,3.097,197,17.23,17.59,10.88357,0.108,53.5,60.68,34.15,35.83
"2016-09-22 09:30:00",254278,0.005,198.3,15.58,100,81.18401,0,871.1978,0,-0.865,3.102,220,17.19,17.58,8.185416,0.1,53.5,60.86,34.15,35.88
"2016-09-22 09:40:00",254279,0.118,300.5,15.45,100,78.28738,0.5,871.1978,0,-2.05,3.114,208,17.19,17.58,8.014887,0.102,53.45,61.04,34.14,35.92
"2016-09-22 09:50:00",254280,0.172,332.7,15.5,100,102.5883,1,871.1978,0,-0.502,3.098,205,17.2,17.59,11.33453,0.11,53.39,61.22,34.13,35.96
"2016-09-22 10:00:00",254281,0.084,4.231,15.67,100,93.17924,0,871.1978,0,-0.495,3.097,204,17.25,17.6,9.56481,0.102,53.39,61.58,34.13,36.04
"2016-09-22 10:10:00",254282,0.245,100.4,15.68,100,98.10389,1,871.1999,0,0.684,3.086,208,17.26,17.6,10.78883,0.108,53.39,62,34.13,36.13
"2016-09-22 10:20:00",254283,0.515,101.4,15.71,100,191.1534,0,871.1051,0,-1.784,3.11,197,17.28,17.59,22.4341,0.117,53.33,62.72,34.11,36.3
"2016-09-22 10:30:00",254284,0.423,102.5,15.58,100,172.4571,0,870.9471,0,-0.05,3.095,210,17.28,17.58,19.45931,0.113,53.28,63.08,34.1,36.38
"2016-09-22 10:40:00",254285,0.25,112.8,15.35,100,96.09551,0.5,870.9451,0,-2.885,3.124,195,17.28,17.6,9.686076,0.099,53.22,63.26,34.08,36.42
"2016-09-22 10:50:00",254286,0.257,98,14.76,100,91.71717,0.5,870.9492,0,-0.734,3.104,227,17.28,17.62,9.136592,0.099,53.16,63.02,34.07,36.36
"2016-09-22 11:00:00",254287,0.089,54.39,14.88,100,139.7138,1.5,870.9451,0,-0.419,3.1,201,17.28,17.62,14.81712,0.106,53.28,62.96,34.1,36.35
"2016-09-22 11:10:00",254288,0.14,107.8,14.91,100,114.5207,0.5,870.9345,0,-3.229,3.129,186,17.32,17.62,11.96359,0.104,53.45,63.57,34.14,36.49
"2016-09-22 11:20:00",254289,0.065,102.4,14.62,100,87.88908,0.5,870.726,0,0.388,3.094,219,17.38,17.62,9.178277,0.103,53.39,63.93,34.13,36.57
"2016-09-22 11:30:00",254290,0.286,305.4,14.7,100,93.39934,0,870.5322,0,0.443,3.093,249,17.39,17.62,10.14082,0.108,53.39,64.24,34.13,36.63
"2016-09-22 11:40:00",254291,0.818,48.94,14.59,100,77.65067,0.5,870.4417,0,-0.132,3.1,292,17.37,17.62,8.177837,0.105,53.33,64.48,34.11,36.69
"2016-09-22 11:50:00",254292,0.514,339.1,14.59,100,83.00373,0.5,870.4564,0,0.056,3.097,224,17.36,17.61,8.988799,0.108,53.33,64.54,34.11,36.7
"2016-09-22 12:00:00",254293,0.806,332.7,14.59,100,98.08424,1,870.4437,0,0.279,3.096,211,17.36,17.59,11.01621,0.112,53.45,64.66,34.14,36.73
"2016-09-22 12:10:00",254294,0.491,292,14.54,100,92.94736,1,870.4374,0,0.539,3.093,234,17.39,17.59,10.33788,0.111,53.56,64.73,34.17,36.74
"2016-09-22 12:20:00",254295,0.665,329.6,14.64,100,99.36944,0,870.4395,0,0.19,3.095,219,17.45,17.58,11.17158,0.112,53.5,64.79,34.15,36.76
"2016-09-22 12:30:00",254296,0.467,40.02,14.83,99.1,74.98595,0.5,870.4395,0,0.008,3.097,212,17.45,17.57,8.094467,0.107,53.5,64.79,34.15,36.76
"2016-09-22 12:40:00",254297,0.212,30.88,14.8,99.4,57.94815,1.5,870.509,0,0.134,3.096,219,17.48,17.56,5.99127,0.103,53.56,64.79,34.17,36.76
"2016-09-22 12:50:00",254298,0.336,52.97,14.81,100,80.84207,2,870.4395,0,0.032,3.097,221,17.47,17.56,8.575739,0.105,53.9,64.85,34.25,36.77
"2016-09-22 13:00:00",254299,0.428,71.71,14.8,100,141.8833,0.5,870.3153,0,0.395,3.093,235,17.45,17.56,15.8744,0.112,54.01,64.85,34.27,36.77
"2016-09-22 13:10:00",254300,0.522,22.96,14.76,100,125.9932,0,870.1868,0,0.033,3.097,224,17.45,17.56,14.21837,0.113,53.9,64.85,34.25,36.77
"2016-09-22 13:20:00",254301,0.938,62.76,14.7,100,127.416,0.5,870.1594,0,-0.742,3.105,211,17.45,17.55,14.69964,0.115,53.78,64.85,34.22,36.77
"2016-09-22 13:30:00",254302,0.944,62.34,14.71,100,165.5515,0,869.9235,0,-2.456,3.121,208,17.45,17.54,19.58436,0.118,53.67,64.85,34.19,36.77
"2016-09-22 13:40:00",254303,0.529,67.82,14.99,100,209.3389,0.5,869.7045,0,0.1,3.094,243,17.47,17.59,24.93141,0.119,53.61,64.85,34.18,36.77
"2016-09-22 13:50:00",254304,0.526,60.5,15.31,100,195.3392,0.5,869.6834,0,-0.002,3.095,224,17.53,17.62,23.12001,0.118,53.61,64.85,34.18,36.77
"2016-09-22 14:00:00",254305,0.347,97.9,15.17,100,102.1717,0,869.6791,0,-0.009,3.096,242,17.53,17.61,11.59601,0.113,53.5,64.79,34.15,36.76
"2016-09-22 14:10:00",254306,0.219,112.9,15.23,100,130.0846,0,869.5549,0,-0.611,3.1,202,17.54,17.6,15.41208,0.118,53.39,64.79,34.13,36.76
"2016-09-22 14:20:00",254307,0.174,144.3,15.2,98.4,97.96633,0,869.4391,0,-0.263,3.098,195,17.56,17.62,11.36105,0.115,53.28,64.79,34.1,36.76
"2016-09-22 14:30:00",254308,0.263,187.3,14.96,97.5,73.14263,0,869.5908,0,0.032,3.097,226,17.58,17.61,8.408999,0.115,53.22,64.79,34.08,36.76
"2016-09-22 14:40:00",254309,0.632,181.9,14.75,96.6,69.75473,0,869.4707,0,0.026,3.098,216,17.58,17.62,8.348367,0.12,53.16,64.36,34.07,36.66
"2016-09-22 14:50:00",254310,0.608,190.3,14.49,97,46.02366,0,869.5086,0,-0.44,3.103,240,17.58,17.62,5.57442,0.121,53.11,63.81,34.06,36.54
"2016-09-22 15:00:00",254311,0.538,194.6,14.52,95.4,84.19853,0.5,869.4349,0,-1.182,3.11,231,17.58,17.59,10.6562,0.127,53.05,63.45,34.04,36.46
"2016-09-22 15:10:00",254312,0.865,203.9,14.56,95.4,116.5762,0,869.2664,0,-1.206,3.11,198,17.56,17.6,14.82091,0.127,53,63.02,34.03,36.36
"2016-09-22 15:20:00",254313,0.828,193.2,14.62,95.5,71.80634,0,869.18,0,-0.487,3.103,201,17.54,17.61,9.185856,0.128,52.94,62.48,34.02,36.24
"2016-09-22 15:30:00",254314,0.816,204.6,14.66,96.1,74.12128,0,868.9968,0,-0.197,3.099,241,17.54,17.61,9.500387,0.128,52.88,62,34,36.13
"2016-09-22 15:40:00",254315,0.177,128.7,14.71,97.4,49.25829,0,868.923,0,-0.645,3.105,230,17.55,17.62,6.161799,0.125,52.88,61.64,34,36.05
"2016-09-22 15:50:00",254316,0.316,177.4,14.51,100,35.81277,0,868.9631,0,-0.44,3.103,230,17.58,17.62,4.479241,0.125,52.83,61.28,33.99,35.97
"2016-09-22 16:00:00",254317,0.151,124.6,14.65,100,67.5695,0.5,868.902,0,0.419,3.093,271,17.61,17.62,8.200574,0.121,52.77,61.1,33.98,35.93
"2016-09-22 16:10:00",254318,0.027,53.16,14.92,100,55.645,0,868.7188,0,-0.112,3.097,229,17.62,17.62,6.764337,0.121,52.77,60.92,33.98,35.89
"2016-09-22 16:20:00",254319,0.008,237.6,15.13,100,33.86335,0,868.6703,0,-0.207,3.097,220,17.59,17.61,4.111656,0.121,52.72,60.74,33.96,35.85
"2016-09-22 16:30:00",254320,0.131,340.5,15.01,100,21.84454,0,868.6703,0,-0.112,3.097,207,17.58,17.6,2.709524,0.124,52.72,60.62,33.96,35.82
"2016-09-22 16:40:00",254321,0.075,224.1,15.09,100,23.78217,0,868.6703,0,-0.009,3.096,208,17.6,17.61,3.069531,0.129,52.66,60.44,33.95,35.78
"2016-09-22 16:50:00",254322,0.293,130.6,15.06,100,23.20048,0,868.584,0,0.275,3.093,221,17.6,17.59,3.012688,0.13,52.6,60.33,33.94,35.75
"2016-09-22 17:00:00",254323,0.17,96.7,15.06,100,15.76045,0,868.6893,0,-0.42,3.1,212,17.63,17.6,2.167619,0.138,52.55,60.27,33.92,35.74
"2016-09-22 17:10:00",254324,0.152,94.4,15.06,100,25.81019,0,868.6703,0,-0.42,3.1,205,17.62,17.59,3.547014,0.137,52.55,60.09,33.92,35.7
"2016-09-22 17:20:00",254325,0.082,325.3,15.12,100,15.80368,0,868.6766,0,-0.365,3.099,210,17.62,17.58,2.307832,0.15,52.55,60.09,33.92,35.7
"2016-09-22 17:30:00",254326,0.231,22.89,15.12,100,3.710191,0,868.7693,0,-0.468,3.1,205,17.62,17.58,0.6896971,0.191,52.44,59.97,33.89,35.67
"2016-09-22 17:40:00",254327,0.126,343.8,15.07,100,1.3756,0,868.8325,0,-0.475,3.101,205,17.62,17.59,0.3372695,0.256,52.27,59.91,33.85,35.66
"2016-09-22 17:50:00",254328,0.003,37.2,14.98,100,0.6209853,0,868.7019,0,-0.316,3.099,222,17.62,17.59,0.2273727,0.512,52.21,59.85,33.84,35.64
"2016-09-22 18:00:00",254329,0.262,359,14.92,100,0.007860574,0,868.8009,0,-0.245,3.099,221,17.62,17.61,0.2273727,0.032,52.16,59.73,33.83,35.62
"2016-09-22 18:10:00",254330,0.064,309.9,14.95,100,0,0.5,868.8156,0,-0.316,3.099,212,17.62,17.61,0.2273727,0,52.1,59.73,33.81,35.62
"2016-09-22 18:20:00",254331,0.442,127.5,14.99,100,0,0.5,868.4681,0,-1.351,3.11,208,17.62,17.63,0.174319,0,52.05,59.67,33.8,35.6
"2016-09-22 18:30:00",254332,0.495,128.1,15.05,100,0,0,868.3902,0,0.724,3.087,210,17.62,17.65,0.557063,0,52.05,59.56,33.8,35.58
"2016-09-22 18:40:00",254333,0.259,164,15.56,100,0,0.5,868.4176,0,0.471,3.089,201,17.62,17.65,0.8602266,0,52.1,59.56,33.81,35.58
"2016-09-22 18:50:00",254334,0.268,301,15.58,100,0,0,868.4218,0,0.321,3.09,226,17.62,17.65,0.6480121,0,52.05,59.5,33.8,35.56
"2016-09-22 19:00:00",254335,0.439,66.17,15.48,100,0,0.5,868.5924,0,0.313,3.091,202,17.63,17.64,0.3713754,0,52.1,59.5,33.81,35.56
"2016-09-22 19:10:00",254336,0.371,332.5,15.23,100,0,0,868.6682,0,0.378,3.092,203,17.63,17.63,0.08715952,0,52.16,59.5,33.83,35.56
"2016-09-22 19:20:00",254337,0.336,9.19,14.85,100,0,0.5,868.6703,0,-0.535,3.103,213,17.59,17.63,0,0,52.16,59.5,33.83,35.56
"2016-09-22 19:30:00",254338,0.123,352,14.62,100,0,0.5,868.7651,0,-2.644,3.124,193,17.6,17.63,0.007579089,0,52.16,59.5,33.83,35.56
"2016-09-22 19:40:00",254339,0.09,43.87,14.63,100,0,0,868.9568,0,-1.774,3.116,205,17.62,17.63,0.1326341,0,52.21,59.5,33.84,35.56
"2016-09-22 19:50:00",254340,0.06,63.88,14.53,100,0,0.5,869.1611,0,-0.416,3.103,298,17.62,17.63,0.02652681,0,52.32,59.56,33.87,35.58
"2016-09-22 20:00:00",254341,0.111,21.41,14.43,100,0,0.5,869.1716,0,-0.809,3.108,209,17.62,17.63,0.07200135,0,52.44,59.61,33.89,35.59
"2016-09-22 20:10:00",254342,0.022,348.6,14.33,100,0,0,869.1758,0,-2.245,3.122,205,17.59,17.63,0.1326341,0,52.49,59.67,33.91,35.6
"2016-09-22 20:20:00",254343,0.1,123.8,14.33,100,0,0,869.1716,0,-1.985,3.119,191,17.54,17.63,0.1326341,0,52.49,59.67,33.91,35.6
"2016-09-22 20:30:00",254344,0.091,154.7,14.25,100,0,0,869.0305,0,-2.703,3.126,195,17.54,17.63,0.1098968,0,52.49,59.73,33.91,35.62
"2016-09-22 20:40:00",254345,0.58,81.9,14.26,100,0,0,868.7546,0,-1.834,3.118,200,17.56,17.63,0.2273727,0,52.44,59.73,33.89,35.62
"2016-09-22 20:50:00",254346,0.355,107.1,14.35,100,0.05502402,0.5,868.6703,0,-1.473,3.114,194,17.58,17.63,0.3600067,0.386,52.32,59.73,33.87,35.62
"2016-09-22 21:00:00",254347,0.064,71.17,14.44,100,0,0.5,868.5355,0,-0.905,3.108,204,17.6,17.62,0.2311622,0,52.32,59.73,33.87,35.62
"2016-09-22 21:10:00",254348,0.092,331.1,14.44,100,0,1,868.4639,0,-1.569,3.114,194,17.61,17.63,0.2425309,0,52.38,59.67,33.88,35.6
"2016-09-22 21:20:00",254349,0,0,14.43,100,0,2.5,868.6703,0,-0.754,3.107,202,17.6,17.63,0.125055,0,52.83,59.79,33.99,35.63
"2016-09-22 21:30:00",254350,0,0,14.32,100,0,3,868.7019,0,-0.344,3.103,241,17.54,17.63,0.01894772,0,53.73,60.38,34.21,35.77
"2016-09-22 21:40:00",254351,0,0,14.29,100,0,1.5,868.6914,0,-0.193,3.102,235,17.46,17.64,0.007579089,0,53.9,61.16,34.25,35.94
"2016-09-22 21:50:00",254352,0.074,100.3,14.21,100,0,2,868.725,0,-0.295,3.103,212,17.48,17.63,0.01136863,0,53.95,63.26,34.26,36.42
"2016-09-22 22:00:00",254353,0.584,145.2,14.23,100,0,2,868.6577,0,-0.295,3.103,213,17.4,17.63,0,0,54.07,64.91,34.29,36.78
"2016-09-22 22:10:00",254354,0.431,132.8,14.25,100,0.09432688,3,868.4512,0,-0.036,3.1,208,17.39,17.63,0.1098968,0.434,54.41,64.97,34.37,36.8
"2016-09-22 22:20:00",254355,0.407,58.59,14.5,100,0.2476081,0.5,868.5165,0,-0.796,3.106,242,17.28,17.63,0.3145322,1.286,54.46,64.97,34.38,36.8
"2016-09-22 22:30:00",254356,0.181,353.6,14.61,100,0.1021875,0,868.6093,0,0.689,3.092,288,17.26,17.63,0.1326341,0.418,54.29,64.97,34.34,36.8
"2016-09-22 22:40:00",254357,0.081,57.68,14.49,100,0,0,868.5102,0,-0.898,3.107,210,17.25,17.63,0,0,54.07,64.97,34.29,36.8
"2016-09-22 22:50:00",254358,0.114,145.6,14.62,100,0.1532812,1.5,868.3607,0,-0.156,3.1,216,17.22,17.63,0.1477922,0.337,53.95,64.97,34.26,36.8
"2016-09-22 23:00:00",254359,0,0,14.68,100,0.1690023,0,868.1732,0,-0.639,3.104,220,17.18,17.64,0.2235831,0.506,53.95,64.97,34.26,36.8
"2016-09-22 23:10:00",254360,0.092,71.55,15.03,100,0.589543,0,868.2175,0,-0.461,3.099,210,17.18,17.64,0.6101167,0.986,53.84,64.97,34.23,36.8
"2016-09-22 23:20:00",254361,0.298,92.9,15.47,100,0.4637738,0,868.2428,0,-1.173,3.105,213,17.1,17.63,0.5456944,1.224,53.73,64.97,34.21,36.8
"2016-09-22 23:30:00",254362,0.417,108.6,15.4,100,0.01179086,0,868.1564,0,-1.331,3.107,206,17.1,17.63,0.04547453,0.048,53.56,64.91,34.17,36.78
"2016-09-22 23:40:00",254363,0.295,107.4,15.54,100,0.1572115,0,868.0427,0,-1.269,3.105,201,17.1,17.63,0.1818981,0.675,53.5,64.91,34.15,36.78
"2016-09-22 23:50:00",254364,0.454,69.99,15.7,100,0.2161658,0.5,867.9395,0,-0.29,3.095,217,17.07,17.63,0.2235831,0.884,53.33,64.91,34.11,36.78
